User: anonymous   Login
Location: ?????????
(44.2517°N, 135.2292°E)
Time: 23:01:17
(UTC+00:00)
Language:

Aureole 3 Rocket - Orbit

View from above orbital plane
View from above orbital plane
View from above satellite
View from above satellite

Ground track
Ground track

The orbit data is extracted from the following two-line orbital elements,

1 12849U 81094B   25188.52658209  .00001794  00000-0  15828-3 0  9995
2 12849  82.4916  62.6265 0875140  42.7425 323.8491 13.56975844139467
Epoch (UTC): 07 July 2025 12:38:16
Eccentricity: 0.0875140
inclination: 82.4916°
perigee height: 397 km
apogee height: 1696 km
right ascension of ascending node: 62.6265°
argument of perigee: 42.7425°
revolutions per day: 13.56975844
mean anomaly at epoch: 323.8491°
orbit number at epoch: 13946

The dashed part of the orbit path shows where the satellite is in the earth's shadow,  

DLR